Location: Boiro
(42.6475°N, 8.8834°W)
Time: 08:41:32
(UTC+02:00)

NANOSAT C BR1 - Pass Details

Date: 23 August 2022
Orbit: 582 x 600 km, 98.0° (Epoch: 25 September)

Event Time Altitude Azimuth Distance (km) Brightness Sun altitude
Rises 04:26:49 0° 19° (NNE) 2,831 ? -30.4°
Reaches altitude 10° 04:29:04 10° 25° (NNE) 1,922 ? -30.2°
Enters shadow 04:31:44 33° 50° (NE) 990 ? -30.0°
